Winner, SD

7:22 AM CST on December 12, 2017 (GMT -0600)
Winner

Weather History for KICR - July, 2013

Change the Weather History Date:

Monday, July 8, 2013

  Actual Average Record
Temperature  
Mean Temperature 75 °F 75 °F  
Max Temperature 88 °F 87 °F 94 °F (2017)
Min Temperature 62 °F 62 °F 54 °F (2016)
Degree Days  
Heating Degree Days 0 0  
Month to date heating degree days 0 0  
Since 1 June heating degree days 53 54  
Since 1 July heating degree days 0 0  
Cooling Degree Days 10 10  
Month to date cooling degree days 71 73  
Year to date cooling degree days 242 248  
Since 1 June cooling degree days 203 218  
Growing Degree Days 25 (Base 50)    
Moisture  
Dew Point 66 °F    
Average Humidity 79    
Maximum Humidity 100    
Minimum Humidity 57    
Precipitation  
Precipitation 0.01 in 0.11 in 0.02 in (2012)
Month to date precipitation 0.49 0.96  
Year to date precipitation 11.39 12.68  
Sea Level Pressure  
Sea Level Pressure 29.96 in    
Wind  
Wind Speed 7 mph (SE)    
Max Wind Speed 18 mph    
Max Gust Speed 26 mph    
Visibility 5 miles    
Events Fog , Rain    
T = Trace of Precipitation, MM = Missing Value Source: NWS Daily Summary

Daily Weather History Graph

Daily Weather History Graph

Search for Another Location

Airport or City:

Trip Planner

Search our weather history database for the weather conditions in past years. The results will help you decide how hot, cold, wet, or windy it might be!

Date:

Astronomy

Jul. 08, 2013 Rise Set
Actual Time 6:07 AM CDT 9:21 PM CDT
Civil Twilight 5:32 AM CDT 9:56 PM CDT
Nautical Twilight 4:46 AM CDT 10:41 PM CDT
Astronomical Twilight 3:51 AM CDT 11:36 PM CDT
Moon 6:40 AM CDT (7/8) 9:21 PM CDT (7/8)
Length of Visible Light 16h 24m
Length of Day
15h 14m
New Moon, 0% of the Moon is Illuminated
Jul 8
New Moon
Jul 15
First Quarter
Jul 22
Full
Jul 29
Last Quarter
Aug 6
New

Hourly Weather History & Observations

Time (CDT) Temp. Heat Index Dew Point Humidity Pressure Visibility Wind Dir Wind Speed Gust Speed Precip Events Conditions
12:27 AM 64.4 °F - 62.6 °F 94% 30.00 in 2.5 mi Calm Calm - N/A   Partly Cloudy
12:42 AM 64.4 °F - 62.6 °F 94% 30.00 in 5.0 mi Calm Calm - N/A   Partly Cloudy
12:53 AM 64.0 °F - 63.0 °F 96% 29.96 in 4.0 mi ENE 3.5 mph - N/A   Partly Cloudy
1:23 AM 62.6 °F - 62.6 °F 100% 30.01 in 1.5 mi ENE 3.5 mph - N/A   Clear
1:32 AM 62.6 °F - 62.6 °F 100% 30.01 in 0.8 mi NE 4.6 mph - N/A   Clear
1:36 AM 62.6 °F - 62.6 °F 100% 30.01 in 2.0 mi ENE 4.6 mph - N/A   Clear
1:38 AM 62.6 °F - 62.6 °F 100% 30.01 in 3.0 mi East 4.6 mph - N/A   Clear
1:53 AM 63.0 °F - 62.1 °F 97% 29.97 in 6.0 mi ENE 5.8 mph - N/A   Clear
2:53 AM 63.0 °F - 62.1 °F 97% 29.96 in 6.0 mi Calm Calm - N/A   Clear
3:20 AM 62.6 °F - 62.6 °F 100% 30.00 in 2.0 mi NE 3.5 mph - N/A   Clear
3:22 AM 62.6 °F - 62.6 °F 100% 30.00 in 1.2 mi NE 3.5 mph - N/A   Partly Cloudy
3:25 AM 62.6 °F - 62.6 °F 100% 30.00 in 0.8 mi Calm Calm - N/A   Mist
3:47 AM 62.6 °F - 60.8 °F 94% 29.99 in 2.5 mi Calm Calm - N/A   Mostly Cloudy
3:53 AM 62.1 °F - 62.1 °F 100% 29.95 in 4.0 mi Calm Calm - N/A   Mostly Cloudy
4:08 AM 62.6 °F - 62.6 °F 100% 29.99 in 1.5 mi Calm Calm - N/A   Mostly Cloudy
4:16 AM 62.6 °F - 62.6 °F 100% 29.99 in 0.2 mi Calm Calm - N/A Fog Fog
4:53 AM 63.0 °F - 62.1 °F 97% 29.98 in 0.2 mi SW 4.6 mph - N/A Fog Fog
5:53 AM 63.0 °F - 62.1 °F 97% 29.96 in 0.5 mi Calm Calm - 0.00 in Fog , Rain Light Rain
6:53 AM 63.0 °F - 63.0 °F 100% 29.99 in 0.2 mi WSW 5.8 mph - 0.01 in Fog , Rain Light Rain
7:53 AM 64.9 °F - 64.9 °F 100% 29.98 in 0.2 mi Calm Calm - 0.00 in Fog Fog
8:32 AM 66.2 °F - 66.2 °F 100% 30.01 in 2.0 mi SSW 3.5 mph - N/A   Overcast
8:34 AM 66.2 °F - 66.2 °F 100% 30.01 in 3.0 mi SW 3.5 mph - N/A   Overcast
8:53 AM 68.0 °F - 66.9 °F 96% 30.00 in 5.0 mi WSW 5.8 mph - N/A   Scattered Clouds
9:53 AM 75.9 °F - 70.0 °F 82% 29.97 in 10.0 mi SSE 6.9 mph - N/A   Clear
10:53 AM 81.0 °F 84.1 °F 69.1 °F 67% 29.95 in 10.0 mi SSE 10.4 mph - N/A   Clear
11:53 AM 82.9 °F 87.0 °F 70.0 °F 65% 29.95 in 10.0 mi SSE 10.4 mph - N/A   Clear
12:53 PM 84.9 °F 90.1 °F 71.1 °F 63% 29.96 in 10.0 mi South 6.9 mph - N/A   Clear
1:53 PM 86.0 °F 90.7 °F 70.0 °F 59% 29.95 in 10.0 mi Calm Calm - N/A   Clear
2:53 PM 87.1 °F 93.6 °F 72.0 °F 61% 29.93 in 10.0 mi ESE 5.8 mph - N/A   Clear
3:53 PM 88.0 °F 95.6 °F 73.0 °F 61% 29.91 in 10.0 mi ESE 11.5 mph - N/A   Clear
4:53 PM 86.0 °F 93.0 °F 73.0 °F 65% 29.88 in 10.0 mi ESE 13.8 mph - N/A   Clear
5:53 PM 84.0 °F 89.6 °F 72.0 °F 67% 29.91 in 10.0 mi South 18.4 mph 26.5 mph N/A   Partly Cloudy
6:53 PM 80.1 °F 83.8 °F 72.0 °F 76% 29.87 in 10.0 mi SE 9.2 mph - 0.00 in Rain Light Rain
7:53 PM 80.1 °F 84.2 °F 73.0 °F 79% 29.86 in 10.0 mi SE 11.5 mph - 0.00 in   Clear
8:53 PM 78.1 °F - 72.0 °F 81% 29.88 in 10.0 mi SSE 6.9 mph - N/A   Clear
9:53 PM 75.9 °F - 71.1 °F 85% 29.86 in 10.0 mi SSW 8.1 mph - N/A   Clear
10:53 PM 73.9 °F - 66.0 °F 76% 29.85 in 10.0 mi South 5.8 mph - N/A   Clear
11:53 PM 72.0 °F - 66.0 °F 81% 29.81 in 10.0 mi East 5.8 mph - N/A   Clear